Regional Weather Roundup
Issued by NWS Charleston, WV

Home | Current Version | Previous Version | Graphics & Text | Print | Product List | Glossary On
Versions: 1 2 3 4 5 6 7 8 9 10 11 12 13 14 15 16 17 18 19 20 21 22 23 24 25 26 27
000
ASUS41 KRLX 262310
RWRRLX
West Virginia Regional Weather Roundup
National Weather Service Charleston WV
700 PM EDT WED APR 26 2017

Note: "fair" indicates few or no clouds below 12,000 feet with no
significant weather and/or obstructions to visibility.

WVZ003-270000-
Northern Panhandle of West Virginia

CITY           SKY/WX    TMP DP  RH WIND       PRES   REMARKS
WHEELING       CLOUDY    78  53  41 S9        29.68S
$$

WVZ009-270000-
Northwest West Virginia

CITY           SKY/WX    TMP DP  RH WIND       PRES   REMARKS
PARKERSBURG    SUNNY     81  52  36 S8        29.69S
$$

WVZ006-270000-
Western West Virginia

CITY           SKY/WX    TMP DP  RH WIND       PRES   REMARKS
HUNTINGTON     SUNNY     83  52  34 S8        29.65F
$$

WVZ015-270000-
West Central West Virginia

CITY           SKY/WX    TMP DP  RH WIND       PRES   REMARKS
CHARLESTON     SUNNY     83  50  31 SE5       29.67F
$$

WVZ022-031-270000-
North Central West Virginia

CITY           SKY/WX    TMP DP  RH WIND       PRES   REMARKS
CLARKSBURG     SUNNY     78  55  44 S5        29.71S
MORGANTOWN     SUNNY     79  54  41 VRB3      29.72S
$$

WVZ025-035-042-045-270000-
Southern West Virginia

CITY           SKY/WX    TMP DP  RH WIND       PRES   REMARKS
BECKLEY        SUNNY     79  48  33 SE8       29.78S
LOGAN          NOT AVBL
BLUEFIELD      SUNNY     76  44  32 VRB3      29.81S
LEWISBURG      SUNNY     76  53  44 SW3       29.80S
$$

WVZ047-270000-
Northern Mountains of West Virginia

CITY           SKY/WX    TMP DP  RH WIND       PRES   REMARKS
ELKINS         SUNNY     80  52  37 CALM      29.76R
$$

WVZ052-270000-
Eastern Panhandle of West Virginia

CITY           SKY/WX    TMP DP  RH WIND       PRES   REMARKS
MARTINSBURG    SUNNY     71  58  63 SE5       29.76R
PETERSBURG     SUNNY     79  61  54 E3        29.74R
$$




USA.gov is the U.S. government's official web portal to all federal, state and local government web resources and services.